Location: Sagn�
(15.2046°N, 12.7898°W)
Time: 13:53:28
(UTC+00:00)

Cosmos 1408 Rocket - Pass Details

Date: 08 May 2021
Orbit: 602 x 630 km, 82.6° (Epoch: 14 June)

Event Time Altitude Azimuth Distance (km) Brightness Sun altitude
Rises 21:04:09 0° 347° (NNW) 2,891 7.6 -26.0°
Reaches altitude 10° 21:06:25 10° 342° (NNW) 1,988 6.7 -26.5°
Maximum altitude 21:10:40 49° 267° (W) 803 4.3 -27.4°
Enters shadow 21:10:59 48° 252° (WSW) 815 4.3 -27.5°
